User: anonymous   Login
Location: Oshawa
(43.9000°N, 78.8670°W)
Time: 06:43:50
(UTC-04:00)
Language:

Cosmos 1707 Rocket - Orbit

View from above orbital plane
View from above orbital plane
View from above satellite
View from above satellite

Ground track
Ground track

The orbit data is extracted from the following two-line orbital elements,

1 16327U 85113B   16146.20141078  .00000121  00000-0  11868-4 0  9990
2 16327  82.5347  95.0925 0018883 183.2493 312.0461 14.83292163644367
Epoch (UTC): 25 May 2016 04:50:01
Eccentricity: 0.0018883
inclination: 82.5347°
perigee height: 606 km
apogee height: 632 km
right ascension of ascending node: 95.0925°
argument of perigee: 183.2493°
revolutions per day: 14.83292163
mean anomaly at epoch: 312.0461°
orbit number at epoch: 64436

The dashed part of the orbit path shows where the satellite is in the earth's shadow,  

DLR